When you browse on this site, cookies collect data to enhance your experience and personalize the content and advertising you see.
Visit our Privacy Policy to learn more. By continuing to use the site, you agree to this use of cookies and data.
  • In United Kingdom
  • List of Countries
  • For 7 days
  • Water Temperature
  • Weather Map
  • Weather Widgets
  • user-avatar
    Login

    Hourly Weather Siofok

    Today, 28 January, Tuesday

    Time Temperature Precipitation Wind Pressure Humidity
    00:00 +1°C° 0 mm 2 mps 750 mmHg 82%
    01:00 0°C° 0 mm 3 mps 750 mmHg 85%
    02:00 +1°C° 0 mm 3 mps 749 mmHg 87%
    03:00 +1°C° 0 mm 3 mps 748 mmHg 88%
    04:00 0°C° 0 mm 4 mps 748 mmHg 90%
    05:00 +1°C° 0 mm 4 mps 747 mmHg 89%
    06:00 +1°C° 0 mm 4 mps 747 mmHg 88%
    07:00 +2°C° 0 mm 5 mps 746 mmHg 87%
    08:00 +3°C° 0.1 mm 6 mps 746 mmHg 85%
    09:00 +4°C° 0.1 mm 7 mps 745 mmHg 82%
    10:00 +6°C° 0.1 mm 7 mps 745 mmHg 80%
    11:00 +6°C° 0 mm 7 mps 744 mmHg 78%
    12:00 +8°C° 0 mm 6 mps 744 mmHg 77%
    13:00 +9°C° 0 mm 6 mps 743 mmHg 75%
    14:00 +9°C° 0 mm 5 mps 743 mmHg 76%
    15:00 +9°C° 0 mm 5 mps 742 mmHg 76%
    16:00 +10°C° 0 mm 4 mps 741 mmHg 76%
    17:00 +8°C° 0.9 mm 5 mps 741 mmHg 81%
    18:00 +8°C° 0.9 mm 6 mps 741 mmHg 86%
    19:00 +7°C° 0.9 mm 6 mps 741 mmHg 91%
    20:00 +5°C° 2.4 mm 6 mps 741 mmHg 87%
    21:00 +4°C° 2.4 mm 7 mps 742 mmHg 83%
    22:00 +3°C° 2.4 mm 7 mps 742 mmHg 79%
    23:00 +3°C° 0 mm 7 mps 743 mmHg 75%

    Tomorrow, 29 January, Wednesday

    Time Temperature Precipitation Wind Pressure Humidity
    00:00 +3°C° 0 mm 6 mps 744 mmHg 71%
    01:00 +3°C° 0 mm 6 mps 745 mmHg 67%
    02:00 +2°C° 0 mm 6 mps 745 mmHg 70%
    03:00 +2°C° 0 mm 5 mps 745 mmHg 73%
    04:00 +1°C° 0 mm 5 mps 745 mmHg 76%
    05:00 +1°C° 0 mm 5 mps 746 mmHg 81%
    06:00 +1°C° 0 mm 5 mps 746 mmHg 86%
    07:00 0°C° 0 mm 5 mps 746 mmHg 91%
    08:00 +1°C° 0 mm 5 mps 746 mmHg 87%
    09:00 +1°C° 0 mm 5 mps 747 mmHg 84%
    10:00 +2°C° 0 mm 6 mps 747 mmHg 80%
    11:00 +3°C° 0 mm 5 mps 747 mmHg 75%
    12:00 +5°C° 0 mm 4 mps 747 mmHg 69%
    13:00 +7°C° 0 mm 3 mps 747 mmHg 63%
    14:00 +5°C° 0 mm 3 mps 747 mmHg 66%
    15:00 +6°C° 0 mm 2 mps 747 mmHg 69%
    16:00 +6°C° 0 mm 2 mps 747 mmHg 72%
    17:00 +5°C° 0 mm 2 mps 748 mmHg 72%
    18:00 +3°C° 0 mm 3 mps 748 mmHg 72%
    19:00 +3°C° 0 mm 3 mps 749 mmHg 72%
    20:00 +3°C° 0 mm 3 mps 749 mmHg 70%
    21:00 +3°C° 0 mm 3 mps 750 mmHg 69%
    22:00 +2°C° 0 mm 3 mps 750 mmHg 67%
    23:00 +1°C° 0 mm 4 mps 751 mmHg 69%

    Day after tomorrow, 30 January, Thursday

    Time Temperature Precipitation Wind Pressure Humidity
    00:00 +1°C° 0 mm 5 mps 751 mmHg 70%
    01:00 +1°C° 0 mm 6 mps 752 mmHg 72%
    02:00 +1°C° 0 mm 6 mps 752 mmHg 73%
    03:00 -1°C° 0 mm 6 mps 753 mmHg 74%
    04:00 -1°C° 0 mm 6 mps 753 mmHg 75%
    05:00 -1°C° 0 mm 6 mps 754 mmHg 74%
    06:00 0°C° 0 mm 5 mps 754 mmHg 73%
    07:00 -1°C° 0 mm 5 mps 755 mmHg 72%
    08:00 0°C° 0 mm 5 mps 755 mmHg 69%
    09:00 +1°C° 0 mm 6 mps 755 mmHg 65%
    10:00 +2°C° 0 mm 6 mps 756 mmHg 61%
    11:00 +3°C° 0 mm 6 mps 756 mmHg 59%
    12:00 +5°C° 0 mm 5 mps 755 mmHg 57%
    13:00 +5°C° 0 mm 5 mps 755 mmHg 55%
    14:00 +5°C° 0 mm 4 mps 755 mmHg 57%
    15:00 +5°C° 0 mm 3 mps 754 mmHg 59%
    16:00 +5°C° 0 mm 3 mps 754 mmHg 62%
    17:00 +4°C° 0 mm 3 mps 754 mmHg 65%
    18:00 +3°C° 0 mm 3 mps 754 mmHg 67%
    19:00 +3°C° 0 mm 3 mps 754 mmHg 70%
    20:00 +3°C° 0 mm 3 mps 753 mmHg 69%
    21:00 +3°C° 0 mm 4 mps 753 mmHg 69%
    22:00 +3°C° 0 mm 4 mps 752 mmHg 68%
    23:00 +1°C° 0 mm 4 mps 752 mmHg 69%

    31 January, Friday

    Time Temperature Precipitation Wind Pressure Humidity
    00:00 +1°C° 0 mm 4 mps 752 mmHg 70%
    01:00 +1°C° 0 mm 4 mps 752 mmHg 71%
    02:00 +1°C° 0 mm 4 mps 751 mmHg 74%
    03:00 +1°C° 0 mm 4 mps 751 mmHg 77%
    04:00 +1°C° 0 mm 4 mps 751 mmHg 80%
    05:00 +3°C° 0 mm 4 mps 751 mmHg 79%
    06:00 +3°C° 0 mm 4 mps 750 mmHg 79%
    07:00 +3°C° 0 mm 4 mps 750 mmHg 79%
    08:00 +3°C° 0.1 mm 5 mps 750 mmHg 77%
    09:00 +3°C° 0.1 mm 5 mps 750 mmHg 75%
    10:00 +4°C° 0.1 mm 6 mps 751 mmHg 73%
    11:00 +5°C° 0 mm 5 mps 750 mmHg 71%
    12:00 +6°C° 0 mm 5 mps 750 mmHg 69%
    13:00 +6°C° 0 mm 5 mps 750 mmHg 67%
    14:00 +7°C° 0 mm 5 mps 750 mmHg 67%
    15:00 +7°C° 0 mm 4 mps 750 mmHg 67%
    16:00 +7°C° 0 mm 4 mps 750 mmHg 67%
    17:00 +7°C° 0 mm 4 mps 750 mmHg 69%
    18:00 +6°C° 0 mm 4 mps 750 mmHg 71%
    19:00 +6°C° 0 mm 4 mps 750 mmHg 73%
    20:00 +6°C° 0 mm 4 mps 751 mmHg 73%
    21:00 +6°C° 0 mm 4 mps 751 mmHg 74%
    22:00 +7°C° 0 mm 4 mps 751 mmHg 74%
    23:00 +6°C° 0 mm 4 mps 751 mmHg 76%

    1 February, Saturday

    Time Temperature Precipitation Wind Pressure Humidity
    00:00 +6°C° 0 mm 4 mps 751 mmHg 77%
    01:00 +6°C° 0 mm 4 mps 751 mmHg 79%
    02:00 +6°C° 0 mm 4 mps 751 mmHg 80%
    03:00 +5°C° 0 mm 3 mps 751 mmHg 81%
    04:00 +5°C° 0 mm 3 mps 751 mmHg 82%
    05:00 +5°C° 0 mm 3 mps 751 mmHg 83%
    06:00 +5°C° 0 mm 3 mps 751 mmHg 83%
    07:00 +4°C° 0 mm 3 mps 750 mmHg 84%
    08:00 +5°C° 0 mm 4 mps 751 mmHg 81%
    09:00 +6°C° 0 mm 4 mps 751 mmHg 78%
    10:00 +7°C° 0 mm 4 mps 751 mmHg 74%
    11:00 +8°C° 0 mm 4 mps 750 mmHg 71%
    12:00 +10°C° 0 mm 4 mps 750 mmHg 68%
    13:00 +11°C° 0 mm 4 mps 750 mmHg 65%
    14:00 +11°C° 0 mm 4 mps 750 mmHg 66%
    15:00 +10°C° 0 mm 3 mps 750 mmHg 67%
    16:00 +10°C° 0 mm 3 mps 750 mmHg 68%
    17:00 +10°C° 0 mm 3 mps 750 mmHg 69%
    18:00 +10°C° 0 mm 3 mps 750 mmHg 71%
    19:00 +10°C° 0 mm 3 mps 751 mmHg 72%
    20:00 +9°C° 0 mm 3 mps 751 mmHg 73%
    21:00 +9°C° 0 mm 3 mps 751 mmHg 73%
    22:00 +9°C° 0 mm 3 mps 752 mmHg 74%
    23:00 +9°C° 0 mm 3 mps 752 mmHg 75%

    2 February, Sunday

    Time Temperature Precipitation Wind Pressure Humidity
    00:00 +7°C° 0 mm 4 mps 752 mmHg 77%
    01:00 +7°C° 0 mm 4 mps 752 mmHg 78%
    02:00 +7°C° 0 mm 4 mps 753 mmHg 78%
    03:00 +8°C° 0 mm 3 mps 753 mmHg 79%
    04:00 +8°C° 0 mm 3 mps 753 mmHg 79%
    05:00 +7°C° 0 mm 3 mps 754 mmHg 79%
    06:00 +7°C° 0 mm 2 mps 754 mmHg 80%
    07:00 +7°C° 0 mm 2 mps 754 mmHg 81%
    08:00 +8°C° 0 mm 3 mps 754 mmHg 79%
    09:00 +8°C° 0 mm 3 mps 754 mmHg 77%
    10:00 +8°C° 0 mm 4 mps 754 mmHg 75%
    11:00 +10°C° 0 mm 4 mps 753 mmHg 72%
    12:00 +10°C° 0 mm 5 mps 753 mmHg 70%
    13:00 +11°C° 0 mm 6 mps 752 mmHg 68%
    14:00 +11°C° 0 mm 6 mps 751 mmHg 69%
    15:00 +11°C° 0 mm 6 mps 751 mmHg 71%
    16:00 +10°C° 0 mm 6 mps 750 mmHg 72%
    17:00 +10°C° 0 mm 6 mps 750 mmHg 72%
    18:00 +10°C° 0 mm 6 mps 750 mmHg 73%
    19:00 +9°C° 0 mm 7 mps 750 mmHg 74%
    20:00 +9°C° 0 mm 6 mps 750 mmHg 75%
    21:00 +9°C° 0 mm 5 mps 750 mmHg 75%
    22:00 +9°C° 0 mm 5 mps 750 mmHg 76%
    23:00 +9°C° 0 mm 5 mps 750 mmHg 76%
    Show more